| time (UTC) | temp C | wind direction | speed KPH | gust KPH | rain 1hr cm | rain 24hr cm | rain mn cm | humidity % | barometer mb |
| 20260831230022 | 21 | 141 | 0.0 | 0.0 | 0.00 | 0.00 | 0.00 | 42 | 1013.5 |
| 20260831224513 | 22 | 141 | 0.0 | 0.0 | 0.00 | 0.00 | 0.00 | 41 | 1013.3 |
| 20260831223010 | 22 | 159 | 0.0 | 0.0 | 0.00 | 0.00 | 0.00 | 42 | 1013.3 |
| 20260831221506 | 23 | 249 | 0.0 | 0.0 | 0.00 | 0.00 | 0.00 | 40 | 1013.2 |
| 20260831220007 | 23 | 249 | 0.0 | 0.0 | 0.00 | 0.00 | 0.00 | 38 | 1013.2 |
| 20260831214503 | 24 | 249 | 0.0 | 0.0 | 0.00 | 0.00 | 0.00 | 37 | 1013.2 |
| 20260831213004 | 25 | 293 | 0.0 | 1.6 | 0.00 | 0.00 | 0.00 | 36 | 1013.2 |
| 20260831211502 | 25 | 297 | 1.6 | 3.2 | 0.00 | 0.00 | 0.00 | 34 | 1013.1 |
| 20260831210001 | 25 | 302 | 0.0 | 3.2 | 0.00 | 0.00 | 0.00 | 35 | 1013.1 |
| 20260831204601 | 26 | 276 | 0.0 | 3.2 | 0.00 | 0.00 | 0.00 | 36 | 1013.0 |
| 20260831203111 | 26 | 12 | 0.0 | 4.8 | 0.00 | 0.00 | 0.00 | 36 | 1012.8 |
| 20260831201600 | 26 | 246 | 0.0 | 0.0 | 0.00 | 0.00 | 0.00 | 36 | 1012.7 |
| 20260831200059 | 26 | 233 | 0.0 | 0.0 | 0.00 | 0.00 | 0.00 | 35 | 1012.4 |
| 20260831194636 | 27 | 233 | 0.0 | 0.0 | 0.00 | 0.00 | 0.00 | 33 | 1012.2 |
| 20260831193100 | 27 | 233 | 0.0 | 0.0 | 0.00 | 0.00 | 0.00 | 32 | 1012.0 |
| 20260831191600 | 28 | 265 | 0.0 | 0.0 | 0.00 | 0.00 | 0.00 | 30 | 1011.9 |
| 20260831190113 | 28 | 283 | 0.0 | 1.6 | 0.00 | 0.00 | 0.00 | 30 | 1012.0 |
| 20260831184605 | 30 | 274 | 1.6 | 6.4 | 0.00 | 0.00 | 0.00 | 28 | 1011.9 |
| 20260831183100 | 30 | 275 | 1.6 | 9.7 | 0.00 | 0.00 | 0.00 | 27 | 1011.9 |
| 20260831181559 | 31 | 307 | 1.6 | 11.3 | 0.00 | 0.00 | 0.00 | 26 | 1011.8 |
| 20260831180051 | 31 | 275 | 1.6 | 9.7 | 0.00 | 0.00 | 0.00 | 27 | 1011.9 |
| 20260831174551 | 32 | 290 | 1.6 | 12.9 | 0.00 | 0.00 | 0.00 | 26 | 1012.0 |
| 20260831173053 | 32 | 277 | 6.4 | 16.1 | 0.00 | 0.00 | 0.00 | 25 | 1012.0 |
| 20260831171549 | 32 | 251 | 4.8 | 16.1 | 0.00 | 0.00 | 0.00 | 25 | 1012.0 |
| 20260831170049 | 32 | 295 | 4.8 | 14.5 | 0.00 | 0.00 | 0.00 | 23 | 1012.1 |
| 20260831164555 | 32 | 302 | 3.2 | 14.5 | 0.00 | 0.00 | 0.00 | 24 | 1012.0 |
| 20260831163049 | 32 | 160 | 1.6 | 9.7 | 0.00 | 0.00 | 0.00 | 26 | 1012.1 |
| 20260831161545 | 32 | 321 | 3.2 | 6.4 | 0.00 | 0.00 | 0.00 | 26 | 1012.2 |
| 20260831160042 | 32 | 54 | 1.6 | 9.7 | 0.00 | 0.00 | 0.00 | 27 | 1012.4 |
| 20260831154548 | 32 | 68 | 3.2 | 16.1 | 0.00 | 0.00 | 0.00 | 26 | 1012.5 |
| 20260831153037 | 32 | 300 | 3.2 | 12.9 | 0.00 | 0.00 | 0.00 | 27 | 1012.6 |
| 20260831151535 | 32 | 255 | 1.6 | 12.9 | 0.00 | 0.00 | 0.00 | 27 | 1012.7 |
| 20260831150034 | 32 | 261 | 4.8 | 14.5 | 0.00 | 0.00 | 0.00 | 27 | 1012.8 |
| 20260831144536 | 31 | 288 | 3.2 | 19.3 | 0.00 | 0.00 | 0.00 | 27 | 1012.8 |
| 20260831143134 | 31 | 325 | 3.2 | 9.7 | 0.00 | 0.00 | 0.00 | 28 | 1012.8 |
| 20260831141545 | 31 | 286 | 4.8 | 11.3 | 0.00 | 0.00 | 0.00 | 27 | 1013.0 |
| 20260831140038 | 31 | 295 | 3.2 | 16.1 | 0.00 | 0.00 | 0.00 | 27 | 1013.1 |
| 20260831134534 | 31 | 220 | 1.6 | 6.4 | 0.00 | 0.00 | 0.00 | 30 | 1013.3 |
| 20260831133031 | 31 | 49 | 1.6 | 14.5 | 0.00 | 0.00 | 0.00 | 29 | 1013.4 |
| 20260831131520 | 30 | 261 | 3.2 | 12.9 | 0.00 | 0.00 | 0.00 | 30 | 1013.5 |
| 20260831130019 | 30 | 300 | 6.4 | 16.1 | 0.00 | 0.00 | 0.00 | 30 | 1013.6 |
| 20260831124520 | 30 | 323 | 3.2 | 14.5 | 0.00 | 0.00 | 0.00 | 30 | 1013.9 |
| 20260831123020 | 30 | 327 | 4.8 | 16.1 | 0.00 | 0.00 | 0.00 | 31 | 1014.0 |
| 20260831121515 | 29 | 154 | 1.6 | 8.0 | 0.00 | 0.00 | 0.00 | 32 | 1014.1 |
| 20260831120013 | 29 | 300 | 3.2 | 8.0 | 0.00 | 0.00 | 0.00 | 33 | 1014.3 |
| 20260831114512 | 29 | 245 | 8.0 | 16.1 | 0.00 | 0.00 | 0.00 | 34 | 1014.4 |
| 20260831113013 | 28 | 4 | 1.6 | 8.0 | 0.00 | 0.00 | 0.00 | 35 | 1014.5 |
| 20260831111508 | 28 | 67 | 1.6 | 11.3 | 0.00 | 0.00 | 0.00 | 36 | 1014.8 |
| 20260831110006 | 27 | 212 | 1.6 | 8.0 | 0.00 | 0.00 | 0.00 | 36 | 1014.9 |
| 20260831104505 | 27 | 95 | 1.6 | 6.4 | 0.00 | 0.00 | 0.00 | 37 | 1015.1 |
| 20260831103002 | 27 | 271 | 0.0 | 6.4 | 0.00 | 0.00 | 0.00 | 38 | 1015.2 |
| 20260831101616 | 26 | 96 | 3.2 | 9.7 | 0.00 | 0.00 | 0.00 | 37 | 1015.3 |
| 20260831100108 | 26 | 108 | 6.4 | 12.9 | 0.00 | 0.00 | 0.00 | 37 | 1015.3 |
| 20260831094559 | 25 | 78 | 4.8 | 16.1 | 0.00 | 0.00 | 0.00 | 36 | 1015.3 |
| 20260831093054 | 25 | 101 | 3.2 | 11.3 | 0.00 | 0.00 | 0.00 | 38 | 1015.2 |
| 20260831091550 | 25 | 83 | 1.6 | 6.4 | 0.00 | 0.00 | 0.00 | 43 | 1015.3 |
| 20260831090104 | 25 | 114 | 3.2 | 6.4 | 0.00 | 0.00 | 0.00 | 43 | 1015.2 |
| 20260831084547 | 23 | 98 | 1.6 | 8.0 | 0.00 | 0.00 | 0.00 | 44 | 1015.1 |
| 20260831083045 | 23 | 111 | 1.6 | 4.8 | 0.00 | 0.00 | 0.00 | 46 | 1015.0 |
| 20260831081547 | 22 | 116 | 1.6 | 9.7 | 0.00 | 0.00 | 0.00 | 47 | 1014.9 |
| 20260831080044 | 22 | 80 | 4.8 | 9.7 | 0.00 | 0.00 | 0.00 | 50 | 1015.0 |
| 20260831074541 | 21 | 83 | 1.6 | 6.4 | 0.00 | 0.00 | 0.00 | 53 | 1014.9 |
| 20260831073040 | 21 | 88 | 1.6 | 3.2 | 0.00 | 0.00 | 0.00 | 54 | 1015.0 |
| 20260831071539 | 20 | 99 | 0.0 | 0.0 | 0.00 | 0.00 | 0.00 | 58 | 1014.9 |
| 20260831070038 | 18 | 99 | 0.0 | 0.0 | 0.00 | 0.00 | 0.00 | 61 | 1014.7 |
| 20260831064538 | 19 | 101 | 0.0 | 0.0 | 0.00 | 0.00 | 0.00 | 62 | 1014.6 |
| 20260831063036 | 18 | 129 | 0.0 | 0.0 | 0.00 | 0.00 | 0.00 | 62 | 1014.7 |
| 20260831061527 | -17 | 0.0 | 0.0 | 0.00 | 0.00 | 0.00 | 1014.6 | ||
| 20260831060021 | -17 | 0.0 | 0.0 | 0.00 | 0.00 | 0.00 | 1014.7 | ||
| 20260831054517 | -17 | 0.0 | 0.0 | 0.00 | 0.00 | 0.00 | 1014.6 | ||
| 20260831053013 | -17 | 0.0 | 0.0 | 0.00 | 0.00 | 0.00 | 1014.5 | ||
| 20260831051521 | -17 | 92 | 0.0 | 0.0 | 0.00 | 0.00 | 0.00 | 1014.5 | |
| 20260831050006 | 17 | 94 | 0.0 | 0.0 | 0.00 | 0.00 | 0.00 | 66 | 1014.4 |
| 20260831044502 | 17 | 94 | 0.0 | 0.0 | 0.00 | 0.00 | 0.00 | 65 | 1014.3 |
| 20260831043001 | 17 | 94 | 0.0 | 1.6 | 0.00 | 0.00 | 0.00 | 64 | 1014.3 |
| 20260831041605 | 17 | 240 | 0.0 | 0.0 | 0.00 | 0.00 | 0.00 | 66 | 1014.2 |
| 20260831040056 | 18 | 240 | 0.0 | 1.6 | 0.00 | 0.00 | 0.00 | 64 | 1014.3 |
| 20260831034554 | 18 | 240 | 0.0 | 0.0 | 0.00 | 0.00 | 0.00 | 64 | 1014.2 |
| 20260831033053 | 18 | 240 | 0.0 | 1.6 | 0.00 | 0.00 | 0.00 | 61 | 1014.2 |
| 20260831031552 | 18 | 245 | 0.0 | 1.6 | 0.00 | 0.00 | 0.00 | 61 | 1014.2 |
| 20260831030108 | 18 | 247 | 0.0 | 1.6 | 0.00 | 0.00 | 0.00 | 60 | 1014.1 |
| 20260831024616 | 18 | 270 | 0.0 | 0.0 | 0.00 | 0.00 | 0.00 | 61 | 1014.0 |
| 20260831023049 | 18 | 270 | 0.0 | 0.0 | 0.00 | 0.00 | 0.00 | 60 | 1013.9 |
| 20260831021547 | 19 | 260 | 0.0 | 1.6 | 0.00 | 0.00 | 0.00 | 60 | 1013.9 |
| 20260831020046 | 19 | 255 | 1.6 | 4.8 | 0.00 | 0.00 | 0.00 | 60 | 1013.9 |
| 20260831014545 | 18 | 236 | 0.0 | 0.0 | 0.00 | 0.00 | 0.00 | 62 | 1014.0 |
| 20260831013059 | 18 | 236 | 0.0 | 0.0 | 0.00 | 0.00 | 0.00 | 62 | 1013.9 |
| 20260831011540 | 18 | 236 | 0.0 | 0.0 | 0.00 | 0.00 | 0.00 | 61 | 1013.9 |
| 20260831010038 | 19 | 236 | 0.0 | 0.0 | 0.00 | 0.00 | 0.00 | 59 | 1014.0 |
| 20260831004537 | 19 | 179 | 0.0 | 1.6 | 0.00 | 0.00 | 0.00 | 59 | 1014.1 |
| 20260831003032 | 20 | 116 | 0.0 | 1.6 | 0.00 | 0.00 | 0.00 | 58 | 1014.0 |
| 20260831001529 | 20 | 116 | 0.0 | 1.6 | 0.00 | 0.00 | 0.00 | 58 | 1013.8 |
| 20260831000029 | 20 | 13 | 0.0 | 0.0 | 0.00 | 0.00 | 0.00 | 59 | 1013.8 |
| 20260830234526 | 20 | 13 | 0.0 | 0.0 | 0.00 | 0.00 | 0.00 | 59 | 1013.8 |
| 20260830233025 | 21 | 300 | 0.0 | 0.0 | 0.00 | 0.00 | 0.00 | 58 | 1013.7 |
| 20260830231531 | 21 | 300 | 0.0 | 1.6 | 0.00 | 0.00 | 0.00 | 57 | 1013.6 |